Stanley, ND

7:09 AM CDT on September 27, 2016 (GMT -0500)
Stanley

Weather History for K08D - May, 2013

Change the Weather History Date:

Monday, May 6, 2013

  Actual Average (KMOT) Record (KMOT)
Temperature  
Mean Temperature 52 °F 52 °F  
Max Temperature 71 °F 64 °F 88 °F (1992)
Min Temperature 33 °F 40 °F 15 °F (1931)
Degree Days  
Heating Degree Days 13    
Cooling Degree Days 0 0  
Month to date cooling degree days 0  
Year to date cooling degree days 1  
Growing Degree Days 2 (Base 50)    
Moisture  
Dew Point 29 °F    
Average Humidity 44    
Maximum Humidity 93    
Minimum Humidity 17    
Precipitation  
Precipitation 0.00 in 0.07 in 1.85 in (1964)
Month to date precipitation 0.39  
Year to date precipitation 3.28  
Sea Level Pressure  
Sea Level Pressure 30.06 in    
Wind  
Wind Speed 4 mph (SW)    
Max Wind Speed 13 mph    
Max Gust Speed 16 mph    
Visibility 10 miles    
Events      
T = Trace of Precipitation, MM = Missing Value Source: NWS Daily Summary

Daily Weather History Graph

Daily Weather History Graph

Search for Another Location

Airport or City:

Trip Planner

Search our weather history database for the weather conditions in past years. The results will help you decide how hot, cold, wet, or windy it might be!

Date:

Astronomy

May. 06, 2013 Rise Set
Actual Time 6:22 AM CDT 9:11 PM CDT
Civil Twilight 5:46 AM CDT 9:47 PM CDT
Nautical Twilight 5:00 AM CDT 10:33 PM CDT
Astronomical Twilight 4:05 AM CDT 11:28 PM CDT
Moon 4:40 AM CDT (5/6) 6:00 PM CDT (5/6)
Length of Visible Light 16h 00m
Length of Day
14h 48m
Waning Crescent, 11% of the Moon is Illuminated
May 6
Waning Crescent
May 9
New
May 17
First Quarter
May 24
Full
May 31
Last Quarter

Hourly Weather History & Observations

Time (CDT) Temp. Windchill Dew Point Humidity Pressure Visibility Wind Dir Wind Speed Gust Speed Precip Events Conditions
12:15 AM 41.0 °F - 32.0 °F 70% 30.12 in 10.0 mi Calm Calm - N/A   Clear
12:35 AM 41.0 °F - 32.0 °F 70% 30.12 in 10.0 mi Calm Calm - N/A   Clear
12:55 AM 39.2 °F - 32.0 °F 75% 30.11 in 10.0 mi Calm Calm - N/A   Clear
1:15 AM 41.0 °F - 30.2 °F 65% 30.12 in 10.0 mi Calm Calm - N/A   Clear
1:35 AM 39.2 °F - 32.0 °F 75% 30.12 in 10.0 mi Calm Calm - N/A   Clear
1:55 AM 39.2 °F - 32.0 °F 75% 30.12 in 10.0 mi Calm Calm - N/A   Partly Cloudy
2:15 AM 39.2 °F - 32.0 °F 75% 30.12 in 10.0 mi Calm Calm - N/A   Partly Cloudy
2:35 AM 39.2 °F - 32.0 °F 75% 30.12 in 10.0 mi Calm Calm - N/A   Partly Cloudy
2:55 AM 39.2 °F - 32.0 °F 75% 30.11 in 10.0 mi Calm Calm - N/A   Partly Cloudy
3:15 AM 37.4 °F - 32.0 °F 81% 30.11 in 10.0 mi Calm Calm - N/A   Clear
3:35 AM 37.4 °F - 32.0 °F 81% 30.11 in 10.0 mi Calm Calm - N/A   Partly Cloudy
3:55 AM 35.6 °F - 32.0 °F 87% 30.11 in 10.0 mi Calm Calm - N/A   Scattered Clouds
4:15 AM 37.4 °F 34.9 °F 32.0 °F 81% 30.10 in 10.0 mi WSW 3.5 mph - N/A   Scattered Clouds
4:35 AM 35.6 °F 32.8 °F 30.2 °F 81% 30.10 in 10.0 mi SW 3.5 mph - N/A   Mostly Cloudy
4:55 AM 35.6 °F 30.7 °F 32.0 °F 87% 30.10 in 10.0 mi SW 5.8 mph - N/A   Mostly Cloudy
5:15 AM 33.8 °F 28.6 °F 32.0 °F 93% 30.10 in 10.0 mi WSW 5.8 mph - N/A   Scattered Clouds
5:35 AM 33.8 °F 27.7 °F 32.0 °F 93% 30.10 in 10.0 mi WSW 6.9 mph - N/A   Partly Cloudy
5:55 AM 37.4 °F 34.9 °F 28.4 °F 70% 30.10 in 10.0 mi WSW 3.5 mph - N/A   Clear
6:15 AM 37.4 °F 34.9 °F 28.4 °F 70% 30.10 in 10.0 mi WSW 3.5 mph - N/A   Clear
6:35 AM 37.4 °F 33.8 °F 30.2 °F 75% 30.10 in 10.0 mi West 4.6 mph - N/A   Clear
6:55 AM 37.4 °F 33.8 °F 30.2 °F 75% 30.10 in 10.0 mi West 4.6 mph - N/A   Clear
7:15 AM 39.2 °F 35.9 °F 32.0 °F 75% 30.10 in 10.0 mi West 4.6 mph - N/A   Clear
7:35 AM 41.0 °F 38.0 °F 33.8 °F 76% 30.10 in 10.0 mi West 4.6 mph - N/A   Clear
7:55 AM 46.4 °F 45.2 °F 33.8 °F 62% 30.10 in 10.0 mi SW 3.5 mph - N/A   Clear
8:35 AM 53.6 °F - 32.0 °F 44% 30.10 in 10.0 mi WSW 8.1 mph - N/A   Clear
8:55 AM 57.2 °F - 30.2 °F 36% 30.10 in 10.0 mi West 8.1 mph - N/A   Clear
9:15 AM 57.2 °F - 28.4 °F 33% 30.10 in 10.0 mi West 10.4 mph - N/A   Clear
9:35 AM 59.0 °F - 28.4 °F 31% 30.10 in 10.0 mi West 12.7 mph - N/A   Clear
9:55 AM 60.8 °F - 26.6 °F 27% 30.10 in 10.0 mi West 12.7 mph - N/A   Clear
10:15 AM 62.6 °F - 28.4 °F 27% 30.10 in 10.0 mi West 11.5 mph - N/A   Clear
10:35 AM 64.4 °F - 28.4 °F 26% 30.09 in 10.0 mi West 9.2 mph - N/A   Clear
10:55 AM 64.4 °F - 28.4 °F 26% 30.09 in 10.0 mi West 6.9 mph - N/A   Clear
11:15 AM 64.4 °F - 28.4 °F 26% 30.09 in 10.0 mi SW 8.1 mph - N/A   Clear
11:35 AM 66.2 °F - 28.4 °F 24% 30.09 in 10.0 mi West 6.9 mph - N/A   Clear
11:55 AM 66.2 °F - 26.6 °F 23% 30.09 in 10.0 mi SSW 11.5 mph - N/A   Clear
12:15 PM 66.2 °F - 26.6 °F 23% 30.09 in 10.0 mi SSW 4.6 mph - N/A   Clear
12:35 PM 66.2 °F - 26.6 °F 23% 30.09 in 10.0 mi SW 5.8 mph - N/A   Clear
12:55 PM 68.0 °F - 26.6 °F 21% 30.08 in 10.0 mi WSW 5.8 mph - N/A   Clear
1:15 PM 66.2 °F - 26.6 °F 23% 30.08 in 10.0 mi SE 3.5 mph - N/A   Clear
1:35 PM 68.0 °F - 26.6 °F 21% 30.07 in 10.0 mi West 9.2 mph - N/A   Clear
1:55 PM 68.0 °F - 26.6 °F 21% 30.07 in 10.0 mi ESE 3.5 mph - N/A   Clear
2:15 PM 68.0 °F - 26.6 °F 21% 30.06 in 10.0 mi WSW 9.2 mph - N/A   Clear
2:35 PM 68.0 °F - 26.6 °F 21% 30.05 in 10.0 mi West 9.2 mph - N/A   Clear
2:55 PM 69.8 °F - 26.6 °F 20% 30.05 in 10.0 mi SW 9.2 mph 16.1 mph N/A   Clear
3:15 PM 68.0 °F - 26.6 °F 21% 30.05 in 10.0 mi SSW 6.9 mph - N/A   Clear
3:35 PM 69.8 °F - 24.8 °F 18% 30.04 in 10.0 mi South 5.8 mph - N/A   Clear
3:55 PM 69.8 °F - 26.6 °F 20% 30.03 in 10.0 mi ESE 4.6 mph - N/A   Clear
4:15 PM 71.6 °F - 24.8 °F 17% 30.03 in 10.0 mi South 5.8 mph - N/A   Clear
4:35 PM 71.6 °F - 26.6 °F 19% 30.02 in 10.0 mi West 4.6 mph - N/A   Clear
4:55 PM 71.6 °F - 24.8 °F 17% 30.01 in 10.0 mi WSW 5.8 mph - N/A   Clear
5:15 PM 69.8 °F - 24.8 °F 18% 30.01 in 10.0 mi North 5.8 mph - N/A   Clear
5:55 PM 69.8 °F - 26.6 °F 20% 30.00 in 10.0 mi SE 5.8 mph - N/A   Clear
6:15 PM 69.8 °F - 26.6 °F 20% 30.00 in 10.0 mi North 3.5 mph - N/A   Clear
6:35 PM 69.8 °F - 26.6 °F 20% 29.99 in 10.0 mi Calm Calm - N/A   Clear
6:55 PM 69.8 °F - 26.6 °F 20% 29.99 in 10.0 mi South 9.2 mph - N/A   Clear
7:15 PM 69.8 °F - 24.8 °F 18% 29.99 in 10.0 mi South 3.5 mph - N/A   Clear
7:35 PM 69.8 °F - 26.6 °F 20% 29.98 in 10.0 mi South 4.6 mph - N/A   Clear
7:55 PM 68.0 °F - 26.6 °F 21% 29.98 in 10.0 mi South 5.8 mph - N/A   Clear
8:15 PM 66.2 °F - 28.4 °F 24% 29.98 in 10.0 mi South 8.1 mph - N/A   Clear
8:35 PM 64.4 °F - 28.4 °F 26% 29.98 in 10.0 mi South 8.1 mph - N/A   Clear
8:55 PM 60.8 °F - 26.6 °F 27% 29.98 in 10.0 mi North - - N/A   Clear
9:15 PM 59.0 °F - 28.4 °F 31% 29.98 in 10.0 mi South 9.2 mph - N/A   Clear
9:35 PM 55.4 °F - 28.4 °F 36% 29.98 in 10.0 mi Calm Calm - N/A   Clear
9:55 PM 53.6 °F - 30.2 °F 41% 29.99 in 10.0 mi ESE 5.8 mph - N/A   Clear
10:15 PM 53.6 °F - 32.0 °F 44% 29.99 in 10.0 mi ESE 6.9 mph - N/A   Clear
10:35 PM 50.0 °F - 32.0 °F 50% 30.00 in 10.0 mi ESE 4.6 mph - N/A   Clear
10:55 PM 51.8 °F - 30.2 °F 44% 30.00 in 10.0 mi Calm Calm - N/A   Clear
11:15 PM 53.6 °F - 30.2 °F 41% 30.00 in 10.0 mi Calm Calm - N/A   Clear
11:35 PM 50.0 °F - 30.2 °F 47% 30.00 in 10.0 mi SSW 3.5 mph - N/A   Partly Cloudy
11:55 PM 50.0 °F - 30.2 °F 47% 30.00 in 10.0 mi SW 3.5 mph - N/A   Partly Cloudy